SCP
0 0 0 0 0 0 1 1 1 1 1 0 0 0 0 0 0 0 0 0 0 0 0 0 0 0 0 0 0 0 0 0 0 0 0 0 0 0
0 0 0 0 0 0 0 1 1 1 0 0 0 0 0 0 0 0 0 0 0 0 0 0 0 0 0 0 0 0 0 0 0 0 0 0 0 0
0 0 0 0 0 0 0 0 0 0 0 0 0 0 0 0 0 0 0 0 0 0 0 0 0 0 0 0 0 0 0 0 0 0 0 0 0 0
0 0 0 0 0 0 0 0 0 0 0 0 0 0 0 0 0 0 0 0 0 0 0 0 0 0 0 0 0 0 0 0 0 0 0 0 0 0
0 0 0 0 0 0 0 0 0 0 0 0 0 0 0 0 0 0 0 0 0 0 0 0 0 0 0 0 0 0 0 0 0 0 0 0 0 0
0 0 0 0 0 0 0 0 0 0 0 0 0 0 0 0 0 0 0 0 0 0 0 0 0 0 0 0 0 0 0 0 0 0 0 0 0 0
0 0 0 0 0 0 0 0 0 0 0 0 0 0 0 0 0 0 0 0 0 0 0 0 0 0 0 0 0 0 0 0 0 0 0 0 0 0
0 0 0 0 0 0 0 0 0 0 0 0 0 0 0 0 0 0 0 0 0 0 0 0 0 0 0 0 0 0 0 0 0 0 0 0 0 0
0 0 0 0 0 0 0 0 0 0 0 0 0 0 0 0 0 0 0 0 0 0 0 0 0 0 0 0 0 0 0 0 0 0 0 0 0 0
0 0 0 0 0 0 0 0 0 0 0 0 0 0 0 0 0 0 0 0 0 0 0 0 0 0 0 0 0 0 0 0 0 0 0 0 0 0
0 0 0 0 0 0 0 0 0 0 0 0 0 0 0 0 0 0 0 0 0 0 0 0 0 0 0 0 0 0 0 0 0 0 0 0 0 0
0 0 0 0 0 0 0 0 0 0 0 0 0 0 0 0 0 0 0 0 0 0 0 0 0 0 0 0 0 0 0 0 0 0 0 0 0 0
0 0 0 0 0 0 0 0 0 0 0 0 0 0 0 0 0 0 0 0 0 0 0 0 0 0 0 0 0 0 0 0 0 0 0 0 0 0
0 0 0 0 0 0 0 0 0 0 0 0 0 0 0 0 0 0 0 0 0 0 0 0 0 0 0 0 0 0 0 0 0 0 0 0 0 0
0 0 0 0 0 0 0 0 0 0 0 0 0 0 0 0 0 0 0 0 0 0 0 0 0 0 0 0 0 0 0 0 0 0 0 0 0 0
0 0 0 0 0 0 0 0 0 0 0 0 0 0 0 0 0 0 0 0 0 0 0 0 0 0 0 0 0 0 0 0 0 0 0 0 0 0
0 0 0 0 0 0 0 0 0 0 0 0 0 0 0 0 0 0 0 0 0 0 0 0 0 0 0 0 0 0 0 0 0 0 0 0 0 0
0 0 0 0 0 0 0 0 0 0 0 0 0 0 0 0 0 0 0 0 0 0 0 0 0 0 0 0 0 0 0 0 0 0 0 0 0 0
0 0 0 0 0 0 0 0 0 0 0 0 0 0 0 0 0 0 0 0 0 0 0 0 0 0 0 0 0 0 0 0 0 0 0 0 0 0
0 0 0 0 0 0 0 0 0 0 0 0 0 0 0 0 0 0 0 0 0 0 0 0 0 0 0 0 0 0 0 0 0 0 0 0 0 0
0 0 0 0 0 0 0 0 0 0 0 0 0 0 0 0 0 0 0 0 0 0 0 0 0 0 0 0 0 0 0 0 0 0 0 0 0 0
0 0 0 0 0 0 0 0 0 0 0 0 0 0 0 0 0 0 0 0 0 0 0 0 0 0 0 0 0 0 0 0 0 0 0 0 0 0
0 0 0 0 0 0 0 0 0 0 0 0 0 0 0 0 0 0 0 0 0 0 0 0 0 0 0 0 0 0 0 0 0 0 0 0 0 0
Wind_Speed
3 3 3 2 2 2 2 3 4 2 2 2 1 1 1 1 2 1 2 5 7 8 8 8 8 9 10 11 11 12 11 12 13 13 13 14 15 15
3 3 3 2 2 2 2 2 2 3 3 2 2 2 1 1 3 2 2 6 7 8 8 8 9 9 10 11 10 11 11 12 12 13 13 14 15 15
3 3 3 2 2 2 2 2 2 2 2 2 1 1 2 2 2 2 2 2 3 7 8 8 9 9 10 10 10 11 11 11 12 13 14 15 15 16
3 3 3 2 2 2 2 2 2 2 3 2 2 1 2 2 2 2 3 3 3 6 8 8 9 9 9 9 10 10 10 11 12 13 14 15 15 16
4 4 3 3 2 2 3 3 2 1 2 2 2 2 1 1 1 2 3 3 3 5 6 7 7 8 9 9 9 10 10 11 12 13 13 14 15 15
3 3 3 4 4 4 3 3 3 2 2 2 2 1 1 1 1 1 3 2 3 3 5 6 7 8 9 9 9 10 10 11 12 13 13 13 14 15
2 2 3 3 4 4 3 3 4 3 2 2 2 1 2 2 2 1 2 3 3 3 3 3 4 3 4 7 8 9 10 11 12 12 13 13 13 14
2 2 2 3 3 4 4 4 4 4 4 3 2 3 3 3 2 2 2 2 3 2 2 4 2 3 4 3 7 10 10 11 11 12 12 13 13 13
3 2 2 2 2 2 2 2 3 4 5 4 4 4 4 3 3 2 3 3 3 3 3 4 3 4 4 5 9 10 10 11 11 12 12 13 13 13
3 3 3 3 3 2 2 1 1 2 3 3 3 4 3 3 3 3 2 2 2 2 2 3 3 4 5 4 8 9 10 11 11 12 12 12 13 13
2 2 3 3 4 3 2 2 0 1 2 2 2 2 2 2 2 1 1 1 3 3 1 1 2 3 4 4 5 8 10 11 11 12 13 12 12 12
1 2 3 3 4 4 3 3 2 2 1 1 1 1 0 1 2 1 2 2 2 2 1 1 2 2 3 3 2 3 5 8 11 12 13 13 13 7
1 1 2 3 3 3 3 3 3 1 1 1 0 0 1 1 1 1 1 2 2 3 2 1 1 1 2 4 3 3 3 4 5 6 9 12 13 9
2 1 1 2 2 2 2 2 2 1 1 1 1 0 0 1 1 2 2 1 2 3 3 2 2 2 2 3 4 4 3 3 3 4 5 9 10 11
1 1 1 2 1 1 1 2 2 1 1 1 1 1 1 1 1 1 2 2 2 2 2 2 2 2 2 3 3 3 4 4 3 4 5 5 5 5
1 1 2 2 1 1 1 1 0 1 1 1 1 1 1 1 1 1 1 1 2 2 2 2 1 1 2 3 3 3 3 4 4 5 5 5 4 3
1 1 1 1 1 1 1 1 0 0 0 0 0 0 1 1 1 1 1 1 1 2 3 3 2 1 2 2 2 3 3 4 4 5 5 5 4 4
2 1 1 1 1 1 0 0 0 1 1 0 1 1 0 1 1 1 1 1 1 1 2 2 3 3 2 2 2 3 3 3 4 4 4 4 5 4
1 1 1 1 1 1 1 1 1 1 1 1 1 1 1 0 1 1 1 1 1 1 2 2 2 2 2 3 3 2 2 4 4 4 3 3 5 6
1 1 1 1 1 1 1 1 1 1 1 1 1 1 1 0 1 1 1 1 1 1 2 2 2 2 2 3 3 3 4 3 3 4 4 4 4 7
0 0 1 1 1 1 1 1 1 1 1 1 1 1 1 1 0 1 1 1 1 1 2 2 3 4 2 1 2 3 3 5 5 4 4 4 4 4
1 1 1 1 1 1 1 1 1 1 1 1 1 1 1 1 1 1 1 1 1 1 2 2 2 2 1 1 2 4 4 5 6 7 6 4 3 3
1 1 1 1 1 1 1 1 1 1 1 1 1 1 1 1 0 0 0 0 0 1 1 2 2 1 1 1 2 3 4 5 4 4 4 7 7 7
Wind_Direction
188 186 185 192 175 180 176 171 163 197 248 250 247 230 222 225 276 282 283 308 320 322 326 328 327 325 326 326 324 325 329 330 327 327 329 327 327 327
185 184 189 185 174 174 185 186 173 175 221 248 251 247 256 280 291 295 284 308 315 317 319 321 321 323 326 324 324 327 329 327 328 328 328 327 326 326
181 183 191 180 176 178 180 180 178 168 203 268 269 257 253 257 287 290 289 284 293 310 314 314 318 322 321 324 327 327 328 330 329 328 328 327 326 326
188 183 192 173 175 186 183 186 187 185 178 228 271 261 250 244 261 284 299 300 293 305 311 313 317 321 324 326 326 328 329 329 329 329 328 327 327 326
190 190 189 170 188 192 189 192 191 186 175 193 250 267 274 258 285 298 299 297 300 309 319 319 320 322 324 324 327 329 330 330 329 328 328 327 327 327
195 192 192 191 198 197 197 196 182 176 176 193 229 254 272 266 258 290 312 313 313 314 314 315 316 320 323 327 328 329 329 329 329 329 329 329 328 326
194 196 203 207 206 204 204 198 185 182 184 199 227 252 263 259 260 268 291 308 308 298 305 308 312 314 316 320 323 325 326 327 330 331 331 331 329 327
193 196 211 200 204 219 225 221 204 191 195 204 224 233 246 249 254 257 279 302 301 307 312 302 306 303 305 303 316 322 324 328 331 332 331 331 330 329
192 188 203 208 203 201 222 249 250 249 227 209 217 230 231 231 233 255 268 279 281 291 302 292 298 296 299 307 317 322 326 330 331 331 331 331 331 330
199 195 196 205 205 186 186 208 254 273 260 238 217 228 230 226 225 241 257 293 299 289 282 286 297 294 300 302 310 319 325 330 333 334 335 337 336 333
207 199 196 202 206 186 172 178 233 304 319 292 277 259 253 247 233 181 233 293 305 298 272 267 292 302 295 291 306 321 327 332 335 336 338 339 336 333
203 207 209 205 199 191 183 179 204 246 245 13 7 6 352 229 286 228 205 236 283 283 253 269 293 320 310 294 301 315 323 325 332 336 338 338 337 333
206 217 216 204 198 198 197 197 210 198 176 161 125 43 14 356 331 319 263 230 245 256 246 242 275 281 276 298 302 300 312 315 321 326 332 335 336 335
203 204 200 192 195 192 191 171 152 115 131 142 141 198 291 311 324 331 324 312 270 257 252 241 245 256 282 294 297 309 312 310 318 322 324 326 328 330
176 178 172 170 168 163 142 131 124 132 152 169 198 258 279 275 305 328 337 348 345 316 293 265 254 263 262 277 292 304 312 311 318 323 323 322 321 326
150 138 127 117 95 88 105 105 128 177 190 202 223 277 311 310 308 313 302 321 339 330 320 318 294 252 274 284 284 297 303 305 319 322 317 314 315 316
130 111 102 114 105 84 65 41 100 131 157 227 202 260 317 331 325 323 300 307 312 314 328 333 325 300 255 261 287 294 304 306 307 319 322 320 314 315
116 131 147 152 168 165 167 255 253 205 212 226 237 245 263 287 314 321 316 305 315 327 322 321 328 333 339 305 252 281 300 303 311 315 317 318 315 318
117 143 166 186 197 195 217 233 242 242 222 223 243 251 254 270 289 299 314 332 341 328 318 318 322 329 331 318 307 293 297 311 316 316 314 304 300 307
121 167 188 197 212 220 228 239 246 239 236 244 258 251 233 242 285 288 290 309 320 320 318 321 322 315 282 279 286 301 311 307 309 312 312 301 291 297
295 242 209 212 224 228 231 230 231 229 237 246 263 263 239 199 235 269 277 283 309 307 309 309 301 309 300 305 310 314 316 321 317 306 309 313 317 326
295 282 264 255 239 228 227 219 226 227 217 232 261 272 269 232 217 218 231 250 286 295 300 309 323 334 351 347 321 317 322 328 333 333 324 315 307 318
291 283 268 253 245 239 229 218 216 226 223 224 234 252 256 256 245 214 214 230 283 318 327 329 341 353 347 331 325 327 333 335 337 341 337 336 328 309